Fort Wayne, IN

2:16 AM EDT on March 26, 2017 (GMT -0400)
Fort Wayne International

Weather History for KFWA - February, 2013

Change the Weather History Date:

Tuesday, February 19, 2013

  Actual Average Record
Temperature  
Mean Temperature 31 °F 29 °F  
Max Temperature 45 °F 37 °F 67 °F (1930)
Min Temperature 16 °F 21 °F -7 °F (1978)
Degree Days  
Heating Degree Days 34 36  
Month to date heating degree days 718 720  
Since 1 July heating degree days 4065 4291  
Cooling Degree Days 0 0  
Month to date cooling degree days 0 0  
Year to date cooling degree days 0 0  
Moisture  
Dew Point 18 °F    
Average Humidity 82    
Maximum Humidity 92    
Minimum Humidity 71    
Precipitation  
Precipitation 0.03 in 0.07 in 1.85 in (1939)
Month to date precipitation 0.47 1.35  
Year to date precipitation 3.90 3.61  
Snow  
Snow 0.20 in 0.30 in 3.00 in (1929)
Month to date snowfall 4.7 5.6  
Since 1 July snowfall 16.9 26.3  
Snow Depth 0.00 in    
Sea Level Pressure  
Sea Level Pressure 29.83 in    
Wind  
Wind Speed 26 mph (West)    
Max Wind Speed 39 mph    
Max Gust Speed 49 mph    
Visibility 6 miles    
Events Rain , Snow    
T = Trace of Precipitation, MM = Missing Value Source: NWS Daily Summary

Daily Weather History Graph

Daily Weather History Graph

Search for Another Location

Airport or City:

Trip Planner

Search our weather history database for the weather conditions in past years. The results will help you decide how hot, cold, wet, or windy it might be!

Date:

Astronomy

Feb. 19, 2013 Rise Set
Actual Time 7:29 AM EST 6:20 PM EST
Civil Twilight 7:01 AM EST 6:48 PM EST
Nautical Twilight 6:29 AM EST 7:20 PM EST
Astronomical Twilight 5:57 AM EST 7:52 PM EST
Moon 12:49 PM EST (2/19) 3:01 AM EST (2/19)
Length of Visible Light 11h 47m
Length of Day
10h 51m
Waxing Gibbous, 67% of the Moon is Illuminated
Feb 19
Waxing Gibbous
Feb 25
Full
Mar 4
Last Quarter
Mar 11
New
Mar 19
First Quarter

Hourly Weather History & Observations

Time (EST) Temp. Windchill Dew Point Humidity Pressure Visibility Wind Dir Wind Speed Gust Speed Precip Events Conditions
12:54 AM 44.1 °F 34.4 °F 39.9 °F 85% 29.55 in 10.0 mi South 27.6 mph 36.8 mph 0.00 in Rain Light Rain
1:54 AM 44.1 °F 35.4 °F 41.0 °F 89% 29.52 in 9.0 mi South 21.9 mph 34.5 mph 0.03 in Rain Light Rain
2:33 AM 41.0 °F 30.0 °F 37.4 °F 87% 29.53 in 6.0 mi West 28.8 mph 38.0 mph 0.00 in Rain Light Rain
2:54 AM 35.1 °F 22.2 °F 33.1 °F 92% 29.57 in 8.0 mi West 27.6 mph 38.0 mph 0.00 in Rain , Snow Light Rain
3:25 AM 33.8 °F 20.8 °F 32.0 °F 93% 29.59 in 9.0 mi West 26.5 mph 34.5 mph N/A   Overcast
3:54 AM 32.0 °F 18.6 °F 30.0 °F 92% 29.60 in 9.0 mi West 25.3 mph 31.1 mph 0.00 in   Overcast
4:34 AM 30.2 °F 14.7 °F 26.6 °F 86% 29.60 in 9.0 mi West 32.2 mph 42.6 mph N/A   Overcast
4:54 AM 30.0 °F 14.7 °F 28.0 °F 92% 29.64 in 7.0 mi WSW 31.1 mph 39.1 mph N/A   Overcast
5:02 AM 28.4 °F 12.3 °F 26.6 °F 93% 29.63 in 7.0 mi West 32.2 mph 41.4 mph N/A   Overcast
5:30 AM 26.6 °F 12.0 °F 24.8 °F 93% 29.66 in 9.0 mi WSW 23.0 mph 40.3 mph N/A   Overcast
5:54 AM 26.1 °F 9.8 °F 23.0 °F 88% 29.69 in 10.0 mi West 28.8 mph 42.6 mph N/A   Overcast
6:32 AM 24.8 °F 7.3 °F 19.4 °F 80% 29.69 in 10.0 mi West 32.2 mph 42.6 mph N/A   Overcast
6:54 AM 24.1 °F 6.1 °F 19.0 °F 81% 29.72 in 10.0 mi West 33.4 mph 41.4 mph N/A   Overcast
7:54 AM 23.0 °F 4.6 °F 17.1 °F 78% 29.75 in 9.0 mi West 33.4 mph 44.9 mph 0.00 in Snow Light Snow
8:54 AM 24.1 °F 6.9 °F 18.0 °F 77% 29.77 in 8.0 mi West 29.9 mph 36.8 mph 0.00 in Snow Light Snow
9:54 AM 21.9 °F 6.2 °F 18.0 °F 85% 29.78 in 2.5 mi WSW 21.9 mph 29.9 mph 0.00 in Snow Light Snow
10:18 AM 23.0 °F 4.9 °F 17.6 °F 80% 29.76 in 4.0 mi WSW 32.2 mph 40.3 mph 0.00 in Snow Light Snow
10:54 AM 21.9 °F 4.5 °F 15.1 °F 75% 29.80 in 8.0 mi WSW 27.6 mph 39.1 mph 0.00 in Snow Light Snow
11:54 AM 21.9 °F 4.5 °F 15.1 °F 75% 29.83 in 5.0 mi West 27.6 mph 38.0 mph 0.00 in Snow Light Snow
1:54 PM 21.0 °F 3.3 °F 14.0 °F 74% 29.85 in 3.0 mi West 27.6 mph 38.0 mph 0.00 in Snow Light Snow
2:54 PM 19.9 °F 2.8 °F 12.9 °F 74% 29.89 in 6.0 mi West 24.2 mph 34.5 mph 0.00 in Snow Light Snow
3:37 PM 19.4 °F 2.1 °F 12.2 °F 74% 29.88 in 2.0 mi West 24.2 mph 35.7 mph 0.00 in Snow Light Snow
3:43 PM 19.4 °F 0.5 °F 14.0 °F 80% 29.88 in 1.5 mi West 29.9 mph 35.7 mph 0.00 in Snow Light Snow
3:54 PM 19.0 °F 0.0 °F 12.0 °F 74% 29.92 in 6.0 mi West 29.9 mph 38.0 mph 0.00 in Snow Light Snow
4:20 PM 17.6 °F -1.3 °F 12.2 °F 79% 29.91 in 2.0 mi WSW 27.6 mph 34.5 mph 0.00 in Snow Light Snow
4:28 PM 17.6 °F -0.6 °F 10.4 °F 73% 29.91 in 3.0 mi West 25.3 mph 34.5 mph 0.00 in Snow Light Snow
4:54 PM 18.0 °F -1.1 °F 10.0 °F 71% 29.97 in 8.0 mi West 28.8 mph 35.7 mph 0.00 in Snow Light Snow
5:21 PM 17.6 °F -0.6 °F 12.2 °F 79% 29.95 in 2.0 mi West 25.3 mph 33.4 mph 0.00 in Snow Light Snow
5:27 PM 17.6 °F -1.3 °F 10.4 °F 73% 29.95 in 4.0 mi West 27.6 mph 36.8 mph 0.00 in Snow Light Snow
5:54 PM 17.1 °F -1.7 °F 10.9 °F 77% 30.01 in 1.2 mi West 26.5 mph 34.5 mph 0.00 in Snow Light Snow
5:56 PM 17.6 °F 0.5 °F 10.4 °F 73% 29.97 in 1.2 mi West 21.9 mph 34.5 mph 0.00 in Snow Light Snow
6:03 PM 17.6 °F -0.6 °F 10.4 °F 73% 29.97 in 2.5 mi West 25.3 mph 33.4 mph 0.00 in Snow Light Snow
6:08 PM 17.6 °F -0.6 °F 10.4 °F 73% 29.97 in 5.0 mi West 25.3 mph 33.4 mph 0.00 in Snow Light Snow
7:54 PM 17.1 °F 1.0 °F 10.0 °F 74% 30.06 in 5.0 mi West 18.4 mph 27.6 mph 0.00 in Snow Light Snow
8:23 PM 17.6 °F 2.7 °F 10.4 °F 73% 30.03 in 8.0 mi West 16.1 mph 23.0 mph 0.00 in   Overcast
8:47 PM 17.6 °F 1.3 °F 10.4 °F 73% 30.03 in 6.0 mi West 19.6 mph 27.6 mph 0.00 in Snow Light Snow
8:54 PM 16.0 °F -1.7 °F 10.9 °F 81% 30.07 in 4.0 mi West 21.9 mph 27.6 mph 0.00 in Snow Light Snow
9:54 PM 16.0 °F -0.4 °F 10.9 °F 81% 30.09 in 3.0 mi West 18.4 mph 25.3 mph 0.00 in Snow Light Snow
10:54 PM 16.0 °F 1.1 °F 9.0 °F 74% 30.11 in 10.0 mi West 15.0 mph - 0.00 in   Mostly Cloudy
11:54 PM 17.1 °F 1.0 °F 8.1 °F 68% 30.11 in 10.0 mi West 18.4 mph - N/A   Overcast